Location: Chervonnoye
(48.6000°N, 34.4000°E)
Time: 01:48:24
(UTC+00:00)

KAITUO 1B - Pass Details

Date: 28 November 2021
Orbit: 486 x 507 km, 97.4° (Epoch: 16 January)

Event Time Altitude Azimuth Distance (km) Brightness Sun altitude
Rises 03:42:51 0° 21° (NNE) 2,634 ? -13.8°
Reaches altitude 10° 03:45:07 10° 32° (NNE) 1,741 ? -13.5°
Maximum altitude 03:48:30 32° 96° (E) 904 ? -12.9°
Drops below altitude 10° 03:51:52 10° 161° (SSE) 1,721 ? -12.4°
Sets 03:54:06 0° 171° (S) 2,598 ? -12.1°
